Regional Weather Roundup
Issued by NWS

Home | Current Version | Previous Version | Graphics & Text | Print | Product List | Glossary On
Versions: 1 2 3 4 5 6 7 8 9 10 11 12 13 14 15 16 17 18 19 20 21 22 23 24 25 26 27 28 29 30 31 32 33 34 35 36 37 38 39 40 41 42 43 44 45 46 47 48 49 50
000
ASUS45 KPSR 162110
RWRAZ

ARIZONA HOURLY REGIONAL WEATHER ROUNDUP
NATIONAL WEATHER SERVICE PHOENIX AZ
200 PM MST TUE JAN 16 2018

NOTE: FAIR INDICATES FEW OR NO CLOUDS BELOW 12,000 FEET WITH NO
SIGNIFICANT WEATHER AND/OR OBSTRUCTIONS TO VISIBILITY.

AZZ001>003-036-162200-
NORTHWEST ARIZONA

CITY           SKY/WX    TMP DP  RH WIND       PRES   REMARKS
BULLHEAD CITY  CLOUDY    68  36  30 N15       30.12F
KINGMAN        CLOUDY    62  27  26 W3        30.19S
$$

AZZ004>008-015-016-018-162200-
NORTH CENTRAL ARIZONA

CITY           SKY/WX    TMP DP  RH WIND       PRES   REMARKS
GRAND CANYON   SUNNY     52  20  28 VRB5G16   30.27F
WILLIAMS       MOSUNNY   55  19  24 W9        30.24F
PRESCOTT       MOSUNNY   61  25  25 CALM      30.21F
FLAGSTAFF      MOSUNNY   46  22  38 E6        30.29F
PAYSON         SUNNY     54  23  30 S7        30.24F
PAGE           MOSUNNY   49  12  22 NE7       30.31F
$$

AZZ009>014-017-162200-
NORTHEAST ARIZONA

CITY           SKY/WX    TMP DP  RH WIND       PRES   REMARKS
WINSLOW        MOSUNNY   51  23  33 CALM      30.29F
SAINT JOHNS    MOSUNNY   49  24  37 SW3       30.27F
WINDOW ROCK    SUNNY     48  22  35 VRB5      30.29F
SHOW LOW       SUNNY     48  25  40 N6        30.29F
$$

AZZ540-542>544-546-548-162200-
GREATER PHOENIX AREA

CITY           SKY/WX    TMP DP  RH WIND       PRES   REMARKS
PHOENIX        PTSUNNY   73  29  19 SE9       30.10F
BUCKEYE        CLOUDY    68  32  26 E13       30.10F
GLENDALE       PTSUNNY   72  30  21 E6        30.12F
LUKE AFB       PTSUNNY   72  28  20 SE7       30.09F
DEER VALLEY    MOSUNNY   72  27  18 S12       30.10F
SCOTTSDALE     MOSUNNY   71  28  20 SE9G17    30.12F
MESA-FALCON    PTSUNNY   72  27  18 VRB6      30.12
MESA-GATEWAY   PTSUNNY   73  25  16 E16       30.13F
CHANDLER       PTSUNNY   73  25  16 E14       30.11F
$$

AZZ539-553-162200-
SOUTHWEST MARICOPA COUNTY AND PINAL COUNTY

CITY           SKY/WX    TMP DP  RH WIND       PRES   REMARKS
CASA GRANDE    NOT AVBL
GILA BEND      CLOUDY    73  25  17 E17       30.07F
$$

AZZ503-504-507>509-162200-
SOUTHEAST ARIZONA

CITY           SKY/WX    TMP DP  RH WIND       PRES   REMARKS
TUCSON         FAIR      69  22  16 SE20G30   30.15F
DAVIS-MONTHAN  CLOUDY    70  22  16 SE17      30.12F
RYAN FIELD     SUNNY     68  19  15 MISG      30.14F
NOGALES        SUNNY     74  18  12 N6        30.14F
SIERRA VISTA   CLOUDY    58  21  24 E7        30.25F
DOUGLAS        SUNNY     52  21  29 E18       30.26F
SAFFORD        SUNNY     52  18  26 S15G23    30.32F
$$

AZZ532-162200-
SOUTHWEST ARIZONA

CITY           SKY/WX    TMP DP  RH WIND       PRES   REMARKS
YUMA           NOT AVBL
$$

CAZ041-043-047-048-061-525>527-560>570-162200-
SOUTHERN CALIFORNIA

CITY           SKY/WX    TMP DP  RH WIND       PRES   REMARKS
DOWNTOWN L.A.  PTSUNNY   70  46  42 CALM      30.10F HAZE
L.A. AIRPORT   PTSUNNY   68  58  70 W6        30.11F HAZE
SAN DIEGO      PTSUNNY   64  54  69 NW12      30.14F
BURBANK        PTSUNNY   70  41  34 CALM      30.11F
ONTARIO        PTSUNNY   70  36  28 CALM      30.11F
RIVERSIDE      PTSUNNY   69  43  38 VRB3      30.12F
PALM SPRINGS   SUNNY     75  35  23 CALM      30.10F
EL CENTRO NAS  PTSUNNY   75  34  22 VRB3      30.08F
IMPERIAL       PTSUNNY   75  38  26 E3        30.06F
BLYTHE         CLOUDY    69  41  36 E6        30.09F
NEEDLES        CLOUDY    67  38  34 N7        30.13F
$$

NVZ020-UTZ003-162200-
SOUTHERN NEVADA-UTAH

CITY           SKY/WX    TMP DP  RH WIND       PRES   REMARKS
LAS VEGAS      CLOUDY    60  35  39 N3        30.18F
SALT LAKE CITY MOSUNNY   50  25  37 N7        30.28F
$$

NMZ009-TXZ055-162200-
NEW MEXICO-WEST TEXAS

CITY           SKY/WX    TMP DP  RH WIND       PRES   REMARKS
ALBUQUERQUE    PTSUNNY   33  18  53 SW3       30.42F
EL PASO        CLOUDY    36  10  34 E8        30.46S WCI  30
$$


........................KEY........................
SKY/WX - SKY CONDITION/WEATHER
TMP    - TEMPERATURE IN FAHRENHEIT
DP     - DEW POINT IN FAHRENHEIT
RH     - RELATIVE HUMIDITY IN PERCENT
WIND   - DIRECTION AND SPEED IN MILES PER HOUR (MPH)
VRB    - VARIABLE WIND DIRECTION
PRES   - MEAN SEA LEVEL PRESSURE IN INCHES OF MERCURY
         F - FALLING PRESSURE   R - RISING PRESSURE
         S - STEADY PRESSURE
VSB    - VISIBILITY IN MILES
HX     - HEAT INDEX IN FAHRENHEIT
WCI    - WIND CHILL INDEX IN FAHRENHEIT
TC     - TEMPERATURE IN CELSIUS WHICH IS ALSO KNOWN AS
         TEMPERATURE IN CENTIGRADE
AFB    - AIR FORCE BASE
         LUKE AFB IS LUKE AIR FORCE BASE
         DAVIS-MONTHAN IS DAVIS-MONTHAN AIR FORCE BASE
NAS    - NAVAL AIR STATION
         EL CENTRO NAS IS EL CENTRO NAVAL AIR STATION
N/A    - NOT AVAILABLE




USA.gov is the U.S. government's official web portal to all federal, state and local government web resources and services.